Butler, GA

4:08 PM EST on December 08, 2019 (GMT -0500)
Butler

Weather History for K6A1 - November, 2019

Change the Weather History Date:

Saturday, November 16, 2019

  Actual Average (KMCN) Record (KMCN)
Temperature  
Mean Temperature 52 °F -  
Max Temperature 63 °F 68 °F 84 °F (1958)
Min Temperature 42 °F 42 °F 22 °F (1940)
Degree Days  
Heating Degree Days 12    
Growing Degree Days 2 (Base 50)    
Moisture  
Dew Point 43 °F    
Average Humidity 72    
Maximum Humidity 95    
Minimum Humidity 48    
Precipitation  
Precipitation 0.00 in - - ()
Sea Level Pressure  
Sea Level Pressure 30.03 in    
Wind  
Wind Speed 9 mph ()    
Max Wind Speed 18 mph    
Max Gust Speed 24 mph    
Visibility 9.8 miles    
Events Rain    
Averages and records for this station are not official NWS values.
T = Trace of Precipitation, MM = Missing Value Source: Averaged Metar Reports

Daily Weather History Graph

Daily Weather History Graph

Search for Another Location

Airport or City:

Astronomy

Nov. 16, 2019 Rise Set
Actual Time 7:07 AM EST 5:35 PM EST
Civil Twilight 6:41 AM EST 6:01 PM EST
Nautical Twilight 6:11 AM EST 6:31 PM EST
Astronomical Twilight 5:42 AM EST 7:00 PM EST
Moon 9:13 PM EST (11/16) 10:54 AM EST (11/16)
Length of Visible Light 11h 20m
Length of Day
10h 28m
Waning Gibbous, 82% of the Moon is Illuminated
Nov 16
Waning Gibbous
Nov 19
Last Quarter
Nov 26
New
Dec 4
First Quarter
Dec 12
Full

Hourly Weather History & Observations

Time (EST) Temp. Windchill Dew Point Humidity Pressure Visibility Wind Dir Wind Speed Gust Speed Precip Events Conditions
12:15 AM 43.0 °F 34.8 °F 41.2 °F 93% 30.04 in 5.0 mi NNE 18.4 mph 23.0 mph N/A Rain Light Rain
12:35 AM 42.8 °F 36.6 °F 41.0 °F 93% 30.03 in 5.0 mi NNE 11.5 mph 19.6 mph N/A Rain Rain
12:55 AM 43.0 °F 36.0 °F 40.8 °F 92% 30.03 in 10.0 mi NNE 13.8 mph 18.4 mph N/A Rain Light Rain
1:15 AM 43.2 °F 36.6 °F 40.8 °F 91% 30.02 in 10.0 mi NNE 12.7 mph - N/A Rain Light Rain
1:35 AM 43.3 °F 37.7 °F 41.0 °F 91% 30.02 in 10.0 mi NNE 10.4 mph - N/A Rain Light Rain
1:55 AM 43.7 °F 37.3 °F 41.2 °F 91% 30.01 in 10.0 mi NNE 12.7 mph - N/A Rain Light Rain
2:15 AM 43.7 °F 37.7 °F 41.9 °F 93% 30.01 in 10.0 mi NNE 11.5 mph - N/A   Drizzle
2:35 AM 43.7 °F 38.1 °F 41.9 °F 93% 30.02 in 10.0 mi NNE 10.4 mph - N/A Rain Rain
2:55 AM 43.7 °F 37.7 °F 41.9 °F 93% 30.02 in 10.0 mi NNE 11.5 mph - N/A Rain Rain
3:15 AM 43.7 °F 37.7 °F 42.3 °F 95% 30.02 in 10.0 mi North 11.5 mph - N/A Rain Light Rain
3:35 AM 43.9 °F 38.8 °F 42.1 °F 93% 30.02 in 10.0 mi North 9.2 mph - N/A Rain Light Rain
3:55 AM 44.2 °F 38.8 °F 41.7 °F 91% 30.02 in 10.0 mi North 10.4 mph - N/A Rain Light Rain
4:15 AM 44.2 °F 39.7 °F 41.7 °F 91% 30.02 in 10.0 mi NNE 8.1 mph - N/A Rain Light Rain
4:35 AM 44.2 °F 38.4 °F 41.5 °F 90% 30.02 in 10.0 mi NNE 11.5 mph - N/A Rain Light Rain
4:55 AM 44.2 °F 38.8 °F 41.9 °F 91% 30.01 in 10.0 mi NNE 10.4 mph - N/A   Light Drizzle
5:15 AM 44.6 °F 39.7 °F 41.5 °F 89% 30.02 in 10.0 mi NNE 9.2 mph 16.1 mph N/A   Unknown
5:35 AM 44.8 °F 38.7 °F 41.4 °F 88% 30.03 in 10.0 mi NNE 12.7 mph 17.3 mph N/A   Unknown
5:55 AM 44.8 °F 38.3 °F 41.2 °F 87% 30.03 in 10.0 mi NNE 13.8 mph 19.6 mph N/A Rain Light Rain
6:15 AM 44.6 °F 38.1 °F 41.2 °F 88% 30.04 in 7.0 mi NNE 13.8 mph 21.9 mph N/A   Drizzle
6:35 AM 45.5 °F 38.9 °F 40.5 °F 83% 30.04 in 10.0 mi NNE 15.0 mph 20.7 mph N/A   Unknown
7:15 AM 46.4 °F 40.4 °F 40.1 °F 79% 30.04 in 10.0 mi NNE 13.8 mph 18.4 mph N/A   Unknown
7:35 AM 47.1 °F - 40.1 °F 77% 30.04 in 10.0 mi NNE 16.1 mph - N/A   Unknown
7:55 AM 47.8 °F - 38.7 °F 70% 30.04 in 10.0 mi NNE 9.2 mph - N/A   Unknown
8:15 AM 48.2 °F - 39.2 °F 71% 30.05 in 10.0 mi North 6.9 mph - N/A   Unknown
8:35 AM 47.8 °F - 40.5 °F 76% 30.05 in 10.0 mi North 9.2 mph - N/A   Unknown
8:55 AM 48.7 °F - 40.6 °F 74% 30.05 in 10.0 mi NNE 10.4 mph 17.3 mph N/A   Unknown
9:35 AM 50.5 °F - 40.3 °F 68% 30.06 in 10.0 mi North 10.4 mph - N/A   Unknown
9:55 AM 52.2 °F - 39.0 °F 61% 30.06 in 10.0 mi NNE 11.5 mph - N/A   Unknown
10:15 AM 53.8 °F - 38.1 °F 55% 30.07 in 10.0 mi NNE 11.5 mph - N/A   Unknown
10:35 AM 54.9 °F - 38.3 °F 54% 30.06 in 10.0 mi NNE 17.3 mph 23.0 mph N/A   Unknown
10:55 AM 56.1 °F - 39.0 °F 53% 30.06 in 10.0 mi NNE 12.7 mph 21.9 mph N/A   Unknown
11:15 AM 56.8 °F - 39.6 °F 52% 30.06 in 10.0 mi NNE 13.8 mph 23.0 mph N/A   Unknown
11:35 AM 57.4 °F - 40.6 °F 54% 30.05 in 10.0 mi NNE 15.0 mph 24.2 mph N/A   Unknown
11:55 AM 58.6 °F - 41.2 °F 52% 30.04 in 10.0 mi NNE 12.7 mph 18.4 mph N/A   Unknown
12:15 PM 58.1 °F - 40.8 °F 53% 30.04 in 10.0 mi NNE 9.2 mph 18.4 mph N/A   Unknown
12:35 PM 59.0 °F - 41.0 °F 51% 30.03 in 10.0 mi North 6.9 mph 10.4 mph N/A   Unknown
12:55 PM 61.9 °F - 42.3 °F 49% 30.02 in 10.0 mi NNE 10.4 mph - N/A   Unknown
1:15 PM 60.8 °F - 41.9 °F 50% 30.01 in 10.0 mi North 9.2 mph 17.3 mph N/A   Unknown
1:35 PM 61.0 °F - 43.0 °F 52% 30.00 in 10.0 mi ENE 10.4 mph - N/A   Unknown
1:55 PM 61.2 °F - 43.0 °F 51% 30.00 in 10.0 mi NE 8.1 mph - N/A   Unknown
2:15 PM 62.2 °F - 43.3 °F 50% 30.00 in 10.0 mi ENE 9.2 mph - N/A   Unknown
2:35 PM 62.2 °F - 43.2 °F 50% 30.00 in 10.0 mi North 6.9 mph - N/A   Unknown
2:55 PM 63.5 °F - 43.7 °F 48% 30.00 in 10.0 mi NNE 10.4 mph - N/A   Unknown
3:15 PM 62.6 °F - 43.9 °F 50% 29.99 in 10.0 mi NE 5.8 mph - N/A   Unknown
3:35 PM 62.6 °F - 45.1 °F 53% 30.00 in 10.0 mi NNE 8.1 mph - N/A   Unknown
3:55 PM 62.2 °F - 45.0 °F 53% 30.00 in 10.0 mi NNE 6.9 mph - N/A   Unknown
4:15 PM 62.2 °F - 45.7 °F 55% 30.00 in 10.0 mi North 8.1 mph - N/A   Unknown
4:35 PM 61.9 °F - 46.4 °F 57% 30.00 in 10.0 mi NNE 6.9 mph - N/A   Unknown
4:55 PM 61.7 °F - 46.8 °F 58% 30.00 in 10.0 mi NNE 5.8 mph - N/A   Unknown
5:15 PM 61.2 °F - 46.8 °F 59% 30.02 in 10.0 mi NNE 8.1 mph - N/A   Unknown
5:35 PM 60.8 °F - 46.8 °F 60% 30.02 in 10.0 mi NE 6.9 mph - N/A   Unknown
5:55 PM 59.9 °F - 46.8 °F 62% 30.02 in 10.0 mi NNE 8.1 mph - N/A   Unknown
6:15 PM 58.5 °F - 46.8 °F 65% 30.03 in 10.0 mi NE 5.8 mph - N/A   Unknown
6:35 PM 57.4 °F - 46.6 °F 67% 30.03 in 10.0 mi NE 3.5 mph - N/A   Unknown
6:55 PM 55.0 °F - 46.4 °F 73% 30.03 in 10.0 mi Calm Calm - N/A   Unknown
7:35 PM 54.1 °F - 46.6 °F 76% 30.03 in 10.0 mi Calm Calm - N/A   Unknown
7:55 PM 52.2 °F - 46.6 °F 81% 30.05 in 10.0 mi Calm Calm - N/A   Unknown
8:15 PM 51.8 °F - 47.3 °F 85% 30.05 in 10.0 mi Calm Calm - N/A   Unknown
8:35 PM 54.7 °F - 47.1 °F 76% 30.05 in 10.0 mi Calm Calm - N/A   Unknown
8:55 PM 54.0 °F - 47.7 °F 79% 30.06 in 10.0 mi Calm Calm - N/A   Unknown
9:15 PM 54.0 °F - 47.3 °F 78% 30.06 in 10.0 mi East 4.6 mph - N/A   Unknown
9:35 PM 54.7 °F - 46.0 °F 73% 30.06 in 10.0 mi ENE 3.5 mph - N/A   Unknown
9:55 PM 53.6 °F - 46.8 °F 78% 30.07 in 10.0 mi Calm Calm - N/A   Unknown
10:15 PM 53.2 °F - 46.6 °F 78% 30.06 in 10.0 mi ENE 3.5 mph - N/A   Unknown
10:35 PM 53.1 °F - 46.9 °F 80% 30.06 in 10.0 mi ENE 3.5 mph - N/A   Unknown
10:55 PM 52.2 °F - 46.9 °F 82% 30.05 in 10.0 mi Calm Calm - N/A   Unknown
11:15 PM 52.0 °F - 47.1 °F 83% 30.05 in 10.0 mi Calm Calm - N/A   Unknown
11:35 PM 52.3 °F - 46.6 °F 81% 30.05 in 10.0 mi Calm Calm - N/A   Unknown
11:55 PM 52.3 °F - 46.8 °F 81% 30.05 in 10.0 mi North 3.5 mph - N/A   Unknown